Flag Weather past 2 weeks in Camrose, Alberta, Canada

Now
32 °F

Low clouds.


Feels Like: 22 °F
Forecast: 31 / 35 °F
Wind: 15 mph from Southeast

Location: Edmonton International

Current Time: Oct 30, 2014 at 6:39:59 AM

Latest Report: Oct 30, 2014 at 6:00 AM


Visibility: 12 mi

Pressure: 30.31 "Hg

Humidity: 93%

Dew point: 30 °F

Location of CamroseLocation

Historic Weather in Camrose — Graph

°F

Camrose temperature yesterday

Maximum temperature yesterday: 37 °F (at 3:00 PM)
Minimum temperature yesterday: 28 °F (at 5:00 AM)
Average temperature yesterday: 33 °F

Past Weeks' High & Low Weather Summary

 TemperatureHumidityPressure
High72 °F (Oct 20, 2:00 PM)100% (Oct 15, 7:00 AM)30.31 "Hg (Oct 15, 7:00 AM)
Low16 °F (Oct 27, 11:00 PM)25% (Oct 23, 3:00 PM)29.45 "Hg (Oct 23, 12:00 PM)
Average40 °F72%29.82 "Hg
* Reported Oct 15 5:00 AM — Oct 30 5:00 AM, Camrose, Weather by CustomWeather, © 2014

Note: Actual official high and low records may vary slightly from our data, if they occured in-between our weather recording intervals... More about our weather records

Advertising

Camrose weather history for previous 24 hours

 ConditionsComfort  
Time TempWeatherWind HumidityBarometerVisibility
5:00 AM
Oct 30
32 °FLow clouds.12 mph93%30.31 "Hg15 mi
4:00 AM32 °FPassing clouds.9 mph87%30.30 "Hg15 mi
3:00 AM32 °FPassing clouds.9 mph87%30.30 "Hg15 mi
2:00 AM32 °FPartly cloudy.7 mph93%30.29 "Hg15 mi
1:00 AM34 °FPartly cloudy.8 mph87%30.28 "Hg15 mi
12:00 AM34 °FMostly cloudy.8 mph87%30.27 "Hg15 mi
11:00 PM
Oct 29
34 °FMostly cloudy.6 mph87%30.27 "Hg15 mi
10:00 PM36 °FOvercast.6 mph81%30.25 "Hg15 mi
9:00 PM36 °FOvercast.7 mph81%30.23 "Hg15 mi
8:00 PM36 °FMostly cloudy.7 mph81%30.21 "Hg15 mi
7:00 PM36 °FPartly sunny.7 mph81%30.19 "Hg15 mi
6:00 PM36 °FPartly sunny.8 mph81%30.16 "Hg15 mi
5:00 PM37 °FPartly sunny.6 mph75%30.15 "Hg15 mi
4:00 PM37 °FMostly cloudy.2 mph75%30.13 "Hg15 mi
3:00 PM37 °FMostly cloudy.5 mph75%30.11 "Hg15 mi
2:00 PM36 °FMostly cloudy.2 mph81%30.09 "Hg15 mi
1:00 PM36 °FMostly cloudy.2 mph81%30.07 "Hg15 mi
12:00 PM34 °FMostly cloudy.2 mph81%30.06 "Hg15 mi
11:00 AM32 °FLow clouds.3 mph87%30.05 "Hg15 mi
10:00 AM30 °FLow clouds.6 mph93%30.03 "Hg15 mi
9:00 AM30 °FPassing clouds.2 mph93%29.99 "Hg15 mi
8:00 AM30 °FOvercast.2 mph93%29.96 "Hg8 mi
7:00 AM30 °FOvercast.5 mph93%29.95 "Hg15 mi
6:00 AM30 °FMostly cloudy.5 mph93%29.92 "Hg15 mi
Weather by CustomWeather, © 2014

See weather overviewHow to use our weather pages